This is the latest recevied weather packets stored in our database for station/object KC9GSD. If no packets are shown the sender has not sent any weather packets the latest 10 day(s).
| Time | Temp. | Humidity | Pressure | Rain* | Wind** | Luminosity | Snow |
|---|---|---|---|---|---|---|---|
| 1778204546 | 12.78° C | 94% | 1015.2 hPa | 0 mm | - | 0 W/m² | - |
| 1778204242 | 12.78° C | 94% | 1015.2 hPa | 0 mm | - | 0 W/m² | - |
| 1778203938 | 12.78° C | 93% | 1015.1 hPa | 0 mm | - | 0 W/m² | - |
| 1778203636 | 12.78° C | 93% | 1015 hPa | 0 mm | - | 0 W/m² | - |
| 1778203333 | 12.78° C | 92% | 1015 hPa | 0 mm | - | 0 W/m² | - |
| 1778203031 | 13.33° C | 92% | 1014.9 hPa | 0 mm | - | 0 W/m² | - |
| 1778202729 | 13.33° C | 92% | 1014.7 hPa | 0 mm | - | 0 W/m² | - |
| 1778202425 | 13.33° C | 92% | 1014.8 hPa | 0 mm | - | 0 W/m² | - |
| 1778202123 | 13.33° C | 92% | 1014.8 hPa | 0 mm | - | 0 W/m² | - |
| 1778201820 | 13.33° C | 91% | 1014.8 hPa | 0 mm | - | 0 W/m² | - |
| 1778201516 | 13.89° C | 91% | 1014.4 hPa | 0 mm | - | 0 W/m² | - |
| 1778201212 | 13.89° C | 91% | 1014.7 hPa | 0 mm | - | 0 W/m² | - |
| 1778200908 | 13.89° C | 90% | 1014.5 hPa | 0 mm | - | 1 W/m² | - |
| 1778200605 | 13.89° C | 89% | 1014.5 hPa | 0 mm | - | 1 W/m² | - |
| 1778200303 | 14.44° C | 88% | 1014.5 hPa | 0 mm | - | 2 W/m² | - |
| 1778199999 | 14.44° C | 88% | 1014.4 hPa | 0 mm | - | 4 W/m² | - |
| 1778199697 | 14.44° C | 88% | 1014.4 hPa | 0 mm | - | 4 W/m² | - |
| 1778199392 | 15° C | 87% | 1014.4 hPa | 0 mm | - | 7 W/m² | - |
| 1778199088 | 15° C | 86% | 1014.4 hPa | 0 mm | - | 11 W/m² | - |
| 1778198784 | 15° C | 86% | 1014.3 hPa | 0 mm | - | 13 W/m² | - |
| 1778198482 | 15° C | 84% | 1014.3 hPa | 0 mm | - | 15 W/m² | - |
| 1778198178 | 15.56° C | 85% | 1014.2 hPa | 0 mm | - | 17 W/m² | - |
| 1778197876 | 15.56° C | 85% | 1014.2 hPa | 0 mm | - | 23 W/m² | - |
| 1778197572 | 16.11° C | 81% | 1014.3 hPa | 0 mm | - | 35 W/m² | - |
| 1778197269 | 16.11° C | 79% | 1014.3 hPa | 0 mm | - | 38 W/m² | - |
* Rain latest hour (hover to see other rain measurements)
** Current wind speed in m/s (hover to see current wind gust speed)